Regional Weather Roundup
Issued by NWS

Home | Current Version | Previous Version | Text Only | Print | Product List | Glossary Off
Versions: 1 2 3 4 5 6 7 8 9 10 11 12 13 14 15 16 17 18 19 20 21 22 23 24 25 26 27 28 29 30 31 32 33 34 35 36 37 38 39 40 41 42 43 44 45 46 47 48 49 50

000
ASUS43 KLMK 050802
RWRKY
KENTUCKY REGIONAL WEATHER ROUNDUP
NATIONAL WEATHER SERVICE LOUISVILLE KY
400 AM EDT TUE MAY 05 2015

NOTE "FAIR" INDICATES FEW OR NO CLOUDS BELOW 12,000 FEET
WITH NO SIGNIFICANT WEATHER AND/OR OBSTRUCTIONS TO VISIBILITY.

KYZ001>023-026-027-061>063-070>075-050900-
WESTERN AND SOUTH CENTRAL KENTUCKY

CITY           SKY/WX    TMP DP  RH WIND       PRES   REMARKS
PADUCAH        CLEAR     66  50  56 S5        30.18S
HENDERSON      CLEAR     61  52  72 S5        30.19R
OWENSBORO      CLEAR     62  56  81 SE5       30.21R
HOPKINSVILLE   NOT AVBL
BOWLING GREEN  CLEAR     58  55  90 CALM      30.23S
GLASGOW        NOT AVBL
$$

KYZ024-025-028>034-038-045-046-053-050900-
NORTH CENTRAL KENTUCKY

CITY           SKY/WX    TMP DP  RH WIND       PRES   REMARKS
LOUISVILLE/SDF MOCLDY    67  57  70 SE3       30.21R
LOUISVILLE/LOU CLEAR     62  57  83 CALM      30.22R
FORT KNOX      NOT AVBL
$$

KYZ035>037-039>044-047>052-055>060-089>105-050900-
NORTHEAST KENTUCKY

CITY           SKY/WX    TMP DP  RH WIND       PRES   REMARKS
LEXINGTON      CLEAR     62  54  74 S7        30.24S
COVINGTON      MOCLDY    63  57  81 SE3       30.22S
FRANKFORT      CLEAR     59  53  80 CALM      30.22R
$$

KYZ054-064>069-076>088-106>120-050900-
SOUTHEAST KENTUCKY

CITY           SKY/WX    TMP DP  RH WIND       PRES   REMARKS
JACKSON        CLEAR     63  49  60 CALM      30.26S
LONDON         PTCLDY    58  51  78 CALM      30.27R
SOMERSET       NOT AVBL
MIDDLESBORO    CLEAR     51  50  98 CALM      30.30S
MONTICELLO     SUNNY     54  53  96 CALM      30.29S
$$




USA.gov is the U.S. government's official web portal to all federal, state and local government web resources and services.